COSMOS 1275 DEB, 14557

Orbit data source: Space-Track

COSMOS 1275 DEB, 14557 is space debris in LEO originally from a launch on Thu, 04 Jun 1981 UTC launched from the Plesetsk Missile And Space Complex (PKMTR). Debris objects in space refer to the collection of defunct objects orbiting the Earth. Examples of debris include non-operational satellites, rocket bodies, and fragments generated from explosions, collisions, or faulty payload assembly.

Loading next visibility...
Identifier
14557, 1981-053JM
Orbit
LEO
Country
Flag of CISCIS
Related business
Manufacturer
Unknown
Mission
Spacecraft
Bus & Motor
Unknown
Mass
Unknown
Launch date (UTC)
1981-06-04 (45 years ago)
Launch vehicle
Unknown
Launch site
Plesetsk Missile And Space Complex (PKMTR)
Object type
Payload
Rocket body
Debris
Shape & HBR
Unknown shape, 0.1 m
Radar Cross Section
Small (<0.1 m²)

Expand to show TLE details & history
Last TLE update: 12 hours ago

TLE from 12 hours ago
0 COSMOS 1275 DEB
1 14557U 81053JM  26104.21783731  .00002710  00000-0  10007-2 0  9994
2 14557  82.7908  19.7648 0038147  86.4166  64.9797 14.31767785270669
Epoch: 2026-04-14T05:13Z
TLE epoch observation values (Epoch: 2026-04-14T05:13:41.143Z)
Latitude
28.00705°
Longitude
-84.89091°
Altitude
777.848 km
Speed
7.474 km/s
True Right ascension
13h 03m 42s
True Declination
27° 51' 54"
Sunlit
Object was in full shadow at epoch
Visualization orbit readout
Latitude
Unknown
Longitude
Unknown
Altitude
Unknown
Speed
Unknown
Apparent Right ascension
Unknown
Apparent Declination
Unknown
Sunlit
N/A
Visualization observer readout
Local Sidereal Time
23:25:02
Azimuth
Unknown
Elevation
Unknown
Doppler factor
Unknown
Orbital elements
Apogee altitude
810.222 km
Perigee altitude
755.587 km
Semi-major axis
7,161.042 km
Eccentricity
0.00381
Inclination
82.7908°
RAAN
19.7648°
Arg. of periapsis
86.4166°
True anomaly
65.37661°
Mean anomaly
64.9797°
Eccentric anomaly
65.17807°
Mean motion
3.58161 °/min
Orbital period
100.51 mins
BSTAR
0.0010007
Loading maneuver chart data...
Computing Atmospheric mass density...
Loading historical data...
Loading historical data...
Loading historical data...
Loading historical data...
Loading historical data...
Loading historical data...
Loading historical data...

Documentation

Showing up to 5 results
|